"Sample Date","Sample Time","Sample Value","Units","Flow Rate","Sample Interval","Number Channels","Micron Size 0","Counts/Channel 0","Micron Size 1","Counts/Channel 1","Micron Size 2","Counts/Channel 2","Micron Size 3","Counts/Channel 3","Micron Size 4","Counts/Channel 4","Micron Size 5","Counts/Channel 5","Micron Size 6","Counts/Channel 6","Micron Size 7","Counts/Channel 7","Micron Size 8","Counts/Channel 8","Micron Size 9","Counts/Channel 9","Micron Size 10","Counts/Channel 10","Micron Size 11","Counts/Channel 11","Micron Size 12","Counts/Channel 12","Micron Size 13","Counts/Channel 13","Micron Size 14","Counts/Channel 14","Micron Size 15","Counts/Channel 15","Micron Size 16","Counts/Channel 16","Micron Size 17","Counts/Channel 17","Micron Size 18","Counts/Channel 18","Micron Size 19","Counts/Channel 19","Micron Size 20","Counts/Channel 20","Micron Size 21","Counts/Channel 21","Micron Size 22","Counts/Channel 22","Micron Size 23","Counts/Channel 23","Micron Size 24","Counts/Channel 24","Micron Size 25","Counts/Channel 25","Micron Size 26","Counts/Channel 26","Micron Size 27","Counts/Channel 27","Micron Size 28","Counts/Channel 28","Micron Size 29","Counts/Channel 29","Micron Size 30","Counts/Channel 30","Micron Size 31","Counts/Channel 31"
"03/07/08","00:00:02",247965.000,"cc",28314.516,6.00,6,0.100,219789.000,0.200,25649.000,0.300,1663.000,0.500,702.000,1.000,162.000,5.000,0
"03/07/08","00:00:08",247915.000,"cc",28332.074,6.00,6,0.100,219744.000,0.200,25716.000,0.300,1690.000,0.500,629.000,1.000,136.000,5.000,0
"03/07/08","00:00:14",346786.000,"cc",28317.996,6.00,6,0.100,304224.000,0.200,39533.000,0.300,2180.000,0.500,698.000,1.000,151.000,5.000,0
"03/07/08","00:00:20",271168.000,"cc",28300.072,6.00,6,0.100,240506.000,0.200,28283.000,0.300,1585.000,0.500,644.000,1.000,150.000,5.000,0
"03/07/08","00:00:26",269590.000,"cc",28312.449,6.00,6,0.100,239162.000,0.200,27973.000,0.300,1653.000,0.500,664.000,1.000,138.000,5.000,0
"03/07/08","00:00:32",310625.000,"cc",28357.055,6.00,6,0.100,274030.000,0.200,33982.000,0.300,1797.000,0.500,628.000,1.000,188.000,5.000,0
"03/07/08","00:00:38",293500.000,"cc",28323.340,6.00,6,0.100,235232.000,0.200,54924.000,0.300,2541.000,0.500,659.000,1.000,144.000,5.000,0
"03/07/08","00:00:44",300693.000,"cc",28263.387,6.00,6,0.100,240467.000,0.200,56761.000,0.300,2598.000,0.500,711.000,1.000,156.000,5.000,0
"03/07/08","00:00:50",264693.000,"cc",28282.451,6.00,6,0.100,198941.000,0.200,62019.000,0.300,2844.000,0.500,707.000,1.000,182.000,5.000,0
"03/07/08","00:00:56",371703.000,"cc",28346.045,6.00,6,0.100,325925.000,0.200,42927.000,0.300,2054.000,0.500,655.000,1.000,142.000,5.000,0
"03/07/08","00:01:02",382812.000,"cc",28332.938,6.00,6,0.100,336027.000,0.200,43918.000,0.300,2145.000,0.500,582.000,1.000,140.000,5.000,0
"03/07/08","00:01:08",312675.000,"cc",28322.623,6.00,6,0.100,277276.000,0.200,32990.000,0.300,1646.000,0.500,628.000,1.000,135.000,5.000,0
"03/07/08","00:01:14",262435.000,"cc",28298.311,6.00,6,0.100,209174.000,0.200,50043.000,0.300,2362.000,0.500,687.000,1.000,169.000,5.000,0
"03/07/08","00:01:20",333645.000,"cc",28315.010,6.00,6,0.100,294621.000,0.200,36302.000,0.300,1881.000,0.500,669.000,1.000,172.000,5.000,0
"03/07/08","00:01:26",215078.000,"cc",28295.723,6.00,6,0.100,192634.000,0.200,20454.000,0.300,1235.000,0.500,621.000,1.000,134.000,5.000,0
"03/07/08","00:01:32",256951.000,"cc",28337.652,6.00,6,0.100,228973.000,0.200,25704.000,0.300,1492.000,0.500,649.000,1.000,133.000,5.000,0
"03/07/08","00:01:38",303550.000,"cc",28265.426,6.00,6,0.100,269567.000,0.200,31479.000,0.300,1706.000,0.500,659.000,1.000,139.000,5.000,0
"03/07/08","00:01:44",270583.000,"cc",28372.637,6.00,6,0.100,241351.000,0.200,26985.000,0.300,1470.000,0.500,627.000,1.000,150.000,5.000,0
"03/07/08","00:01:50",216868.000,"cc",28377.523,6.00,6,0.100,194306.000,0.200,20589.000,0.300,1242.000,0.500,596.000,1.000,135.000,5.000,0
"03/07/08","00:01:56",305890.000,"cc",28291.229,6.00,6,0.100,270013.000,0.200,33423.000,0.300,1696.000,0.500,629.000,1.000,129.000,5.000,0
"03/07/08","00:02:02",272734.000,"cc",28281.846,6.00,6,0.100,231035.000,0.200,38958.000,0.300,1938.000,0.500,656.000,1.000,147.000,5.000,0
"03/07/08","00:02:08",290784.000,"cc",28307.783,6.00,6,0.100,258323.000,0.200,30108.000,0.300,1584.000,0.500,640.000,1.000,129.000,5.000,0
"03/07/08","00:02:14",288524.000,"cc",28323.141,6.00,6,0.100,256209.000,0.200,29877.000,0.300,1646.000,0.500,643.000,1.000,149.000,5.000,0
"03/07/08","00:02:20",293933.000,"cc",28310.057,6.00,6,0.100,261118.000,0.200,30359.000,0.300,1686.000,0.500,623.000,1.000,147.000,5.000,0
"03/07/08","00:02:26",291118.000,"cc",28301.559,6.00,6,0.100,258667.000,0.200,29843.000,0.300,1757.000,0.500,693.000,1.000,158.000,5.000,0
"03/07/08","00:02:32",301805.000,"cc",28403.652,6.00,6,0.100,265629.000,0.200,33389.000,0.300,2032.000,0.500,639.000,1.000,116.000,5.000,0
"03/07/08","00:02:38",237645.000,"cc",28231.676,6.00,6,0.100,147602.000,0.200,84590.000,0.300,4530.000,0.500,753.000,1.000,170.000,5.000,0
"03/07/08","00:02:44",346832.000,"cc",28272.643,6.00,6,0.100,284648.000,0.200,58242.000,0.300,3169.000,0.500,647.000,1.000,126.000,5.000,0
"03/07/08","00:02:50",377329.000,"cc",28247.172,6.00,6,0.100,327358.000,0.200,46631.000,0.300,2495.000,0.500,681.000,1.000,164.000,5.000,0
"03/07/08","00:02:56",332614.000,"cc",28326.932,6.00,6,0.100,291495.000,0.200,38225.000,0.300,2147.000,0.500,594.000,1.000,153.000,5.000,0
"03/07/08","00:03:02",400727.000,"cc",28367.328,6.00,6,0.100,344936.000,0.200,52208.000,0.300,2786.000,0.500,655.000,1.000,142.000,5.000,0
"03/07/08","00:03:08",209515.000,"cc",28319.205,6.00,6,0.100,134485.000,0.200,70419.000,0.300,3735.000,0.500,740.000,1.000,136.000,5.000,0
"03/07/08","00:03:14",257970.000,"cc",28300.416,6.00,6,0.100,188309.000,0.200,65440.000,0.300,3321.000,0.500,716.000,1.000,184.000,5.000,0
"03/07/08","00:03:20",272553.000,"cc",28282.674,6.00,6,0.100,197197.000,0.200,70785.000,0.300,3717.000,0.500,712.000,1.000,142.000,5.000,0
"03/07/08","00:03:26",353748.000,"cc",28338.463,6.00,6,0.100,294377.000,0.200,55624.000,0.300,2902.000,0.500,710.000,1.000,135.000,5.000,0
"03/07/08","00:03:32",243843.000,"cc",28346.930,6.00,6,0.100,177551.000,0.200,62046.000,0.300,3400.000,0.500,706.000,1.000,140.000,5.000,0
"03/07/08","00:03:38",351318.000,"cc",28301.426,6.00,6,0.100,265962.000,0.200,80222.000,0.300,4241.000,0.500,730.000,1.000,163.000,5.000,0
"03/07/08","00:03:44",319933.000,"cc",28329.813,6.00,6,0.100,266186.000,0.200,50251.000,0.300,2640.000,0.500,725.000,1.000,131.000,5.000,0
"03/07/08","00:03:50",316220.000,"cc",28328.750,6.00,6,0.100,265485.000,0.200,47307.000,0.300,2562.000,0.500,702.000,1.000,164.000,5.000,0
"03/07/08","00:03:56",312120.000,"cc",28326.816,6.00,6,0.100,274038.000,0.200,35199.000,0.300,2059.000,0.500,663.000,1.000,161.000,5.000,0
"03/07/08","00:04:02",275147.000,"cc",28338.512,6.00,6,0.100,243173.000,0.200,29431.000,0.300,1725.000,0.500,652.000,1.000,166.000,5.000,0
"03/07/08","00:04:08",315693.000,"cc",28290.857,6.00,6,0.100,264956.000,0.200,47643.000,0.300,2314.000,0.500,646.000,1.000,134.000,5.000,0
"03/07/08","00:04:14",320384.000,"cc",28293.709,6.00,6,0.100,268929.000,0.200,48335.000,0.300,2309.000,0.500,672.000,1.000,139.000,5.000,0
"03/07/08","00:04:20",292229.000,"cc",28327.906,6.00,6,0.100,258127.000,0.200,31654.000,0.300,1664.000,0.500,617.000,1.000,167.000,5.000,0
"03/07/08","00:04:26",368237.000,"cc",28372.537,6.00,6,0.100,307985.000,0.200,56905.000,0.300,2471.000,0.500,735.000,1.000,141.000,5.000,0
"03/07/08","00:04:32",238086.000,"cc",28329.012,6.00,6,0.100,171268.000,0.200,63313.000,0.300,2709.000,0.500,670.000,1.000,126.000,5.000,0
"03/07/08","00:04:38",263826.000,"cc",28280.283,6.00,6,0.100,210112.000,0.200,50593.000,0.300,2379.000,0.500,623.000,1.000,119.000,5.000,0
"03/07/08","00:04:44",365566.000,"cc",28292.686,6.00,6,0.100,304718.000,0.200,57496.000,0.300,2627.000,0.500,591.000,1.000,134.000,5.000,0
"03/07/08","00:04:50",173114.000,"cc",28310.180,6.00,6,0.100,108963.000,0.200,60638.000,0.300,2704.000,0.500,685.000,1.000,124.000,5.000,0
"03/07/08","00:04:56",347057.000,"cc",28297.305,6.00,6,0.100,291445.000,0.200,52346.000,0.300,2493.000,0.500,648.000,1.000,125.000,5.000,0
"03/07/08","00:05:02",318199.000,"cc",28332.139,6.00,6,0.100,188908.000,0.200,121600.000,0.300,6654.000,0.500,875.000,1.000,162.000,5.000,0
"03/07/08","00:05:08",377712.000,"cc",28311.113,6.00,6,0.100,226580.000,0.200,141693.000,0.300,8331.000,0.500,950.000,1.000,158.000,5.000,0
"03/07/08","00:05:14",196084.000,"cc",28316.607,6.00,6,0.100,82712.000,0.200,107003.000,0.300,5320.000,0.500,900.000,1.000,149.000,5.000,0
"03/07/08","00:05:20",235403.000,"cc",28275.231,6.00,6,0.100,151181.000,0.200,79615.000,0.300,3681.000,0.500,769.000,1.000,157.000,5.000,0
"03/07/08","00:05:26",379103.000,"cc",28329.652,6.00,6,0.100,314500.000,0.200,60790.000,0.300,2955.000,0.500,685.000,1.000,173.000,5.000,0
"03/07/08","00:05:32",250041.000,"cc",28351.748,6.00,6,0.100,176774.000,0.200,68815.000,0.300,3534.000,0.500,770.000,1.000,148.000,5.000,0
"03/07/08","00:05:38",192288.000,"cc",28375.561,6.00,6,0.100,93704.000,0.200,93096.000,0.300,4537.000,0.500,803.000,1.000,148.000,5.000,0
"03/07/08","00:05:44",437191.000,"cc",28294.098,6.00,6,0.100,261560.000,0.200,160535.000,0.300,13756.000,0.500,1171.000,1.000,169.000,5.000,0
"03/07/08","00:05:50",316556.000,"cc",28335.795,6.00,6,0.100,186110.000,0.200,122178.000,0.300,7255.000,0.500,853.000,1.000,160.000,5.000,0
"03/07/08","00:05:56",208886.000,"cc",28246.805,6.00,6,0.100,83219.000,0.200,118100.000,0.300,6512.000,0.500,926.000,1.000,129.000,5.000,0
"03/07/08","00:06:02",193095.000,"cc",28277.760,6.00,6,0.100,95375.000,0.200,92012.000,0.300,4762.000,0.500,787.000,1.000,159.000,5.000,0
"03/07/08","00:06:08",377643.000,"cc",28346.637,6.00,6,0.100,312593.000,0.200,60993.000,0.300,3226.000,0.500,692.000,1.000,139.000,5.000,0
"03/07/08","00:06:14",330465.000,"cc",28306.332,6.00,6,0.100,261018.000,0.200,65006.000,0.300,3484.000,0.500,784.000,1.000,173.000,5.000,0
"03/07/08","00:06:20",206935.000,"cc",28297.430,6.00,6,0.100,103716.000,0.200,96797.000,0.300,5361.000,0.500,887.000,1.000,174.000,5.000,0
"03/07/08","00:06:26",343564.000,"cc",28303.357,6.00,6,0.100,284198.000,0.200,55196.000,0.300,3170.000,0.500,841.000,1.000,159.000,5.000,0
"03/07/08","00:06:32",246701.000,"cc",28314.266,6.00,6,0.100,218488.000,0.200,25533.000,0.300,1850.000,0.500,684.000,1.000,146.000,5.000,0
"03/07/08","00:06:38",243460.000,"cc",28334.902,6.00,6,0.100,189270.000,0.200,50410.000,0.300,2905.000,0.500,735.000,1.000,140.000,5.000,0
"03/07/08","00:06:44",326561.000,"cc",28329.502,6.00,6,0.100,256995.000,0.200,64927.000,0.300,3666.000,0.500,808.000,1.000,165.000,5.000,0
"03/07/08","00:06:50",315517.000,"cc",28403.680,6.00,6,0.100,277084.000,0.200,35424.000,0.300,2169.000,0.500,697.000,1.000,143.000,5.000,0
"03/07/08","00:06:56",163219.000,"cc",28250.133,6.00,6,0.100,145826.000,0.200,15337.000,0.300,1271.000,0.500,662.000,1.000,123.000,5.000,0
"03/07/08","00:07:02",275423.000,"cc",28293.803,6.00,6,0.100,231078.000,0.200,41049.000,0.300,2357.000,0.500,776.000,1.000,163.000,5.000,0
"03/07/08","00:07:08",316115.000,"cc",28335.701,6.00,6,0.100,265568.000,0.200,47031.000,0.300,2640.000,0.500,728.000,1.000,148.000,5.000,0
"03/07/08","00:07:14",344502.000,"cc",28325.965,6.00,6,0.100,301338.000,0.200,40092.000,0.300,2174.000,0.500,721.000,1.000,177.000,5.000,0
"03/07/08","00:07:20",324142.000,"cc",28289.734,6.00,6,0.100,285376.000,0.200,35828.000,0.300,2102.000,0.500,690.000,1.000,146.000,5.000,0
"03/07/08","00:07:26",347062.000,"cc",28312.328,6.00,6,0.100,291277.000,0.200,52121.000,0.300,2802.000,0.500,710.000,1.000,152.000,5.000,0
"03/07/08","00:07:32",306182.000,"cc",28318.795,6.00,6,0.100,259468.000,0.200,43536.000,0.300,2372.000,0.500,653.000,1.000,153.000,5.000,0
"03/07/08","00:07:38",331078.000,"cc",28329.502,6.00,6,0.100,292218.000,0.200,35933.000,0.300,2089.000,0.500,681.000,1.000,157.000,5.000,0
"03/07/08","00:07:44",320050.000,"cc",28390.391,6.00,6,0.100,269893.000,0.200,46821.000,0.300,2487.000,0.500,713.000,1.000,136.000,5.000,0
"03/07/08","00:07:50",224630.000,"cc",28252.881,6.00,6,0.100,150028.000,0.200,70268.000,0.300,3423.000,0.500,756.000,1.000,155.000,5.000,0
"03/07/08","00:07:56",259939.000,"cc",28356.107,6.00,6,0.100,218441.000,0.200,38518.000,0.300,2143.000,0.500,678.000,1.000,159.000,5.000,0
"03/07/08","00:08:02",198284.000,"cc",28302.666,6.00,6,0.100,131421.000,0.200,62979.000,0.300,2970.000,0.500,747.000,1.000,167.000,5.000,0
"03/07/08","00:08:08",201441.000,"cc",28333.672,6.00,6,0.100,100754.000,0.200,95338.000,0.300,4375.000,0.500,804.000,1.000,170.000,5.000,0
"03/07/08","00:08:14",323072.000,"cc",28296.488,6.00,6,0.100,194516.000,0.200,120974.000,0.300,6486.000,0.500,919.000,1.000,177.000,5.000,0
"03/07/08","00:08:20",272196.000,"cc",28279.590,6.00,6,0.100,178579.000,0.200,88185.000,0.300,4506.000,0.500,771.000,1.000,155.000,5.000,0
"03/07/08","00:08:26",180111.000,"cc",28302.885,6.00,6,0.100,93527.000,0.200,81666.000,0.300,3968.000,0.500,775.000,1.000,175.000,5.000,0
"03/07/08","00:08:32",285823.000,"cc",28330.186,6.00,6,0.100,226919.000,0.200,55329.000,0.300,2779.000,0.500,658.000,1.000,138.000,5.000,0
"03/07/08","00:08:38",220947.000,"cc",28330.416,6.00,6,0.100,101808.000,0.200,112335.000,0.300,5728.000,0.500,922.000,1.000,154.000,5.000,0
"03/07/08","00:08:44",191374.000,"cc",28281.969,6.00,6,0.100,95556.000,0.200,90204.000,0.300,4579.000,0.500,882.000,1.000,153.000,5.000,0
"03/07/08","00:08:50",264377.000,"cc",28341.908,6.00,6,0.100,193761.000,0.200,66336.000,0.300,3347.000,0.500,779.000,1.000,154.000,5.000,0
"03/07/08","00:08:56",135599.000,"cc",28386.879,6.00,6,0.100,63121.000,0.200,68154.000,0.300,3384.000,0.500,798.000,1.000,142.000,5.000,0
"03/07/08","00:09:02",279220.000,"cc",28340.084,6.00,6,0.100,202460.000,0.200,72222.000,0.300,3582.000,0.500,799.000,1.000,157.000,5.000,0
"03/07/08","00:09:08",319903.000,"cc",28249.363,6.00,6,0.100,281576.000,0.200,35490.000,0.300,2063.000,0.500,638.000,1.000,136.000,5.000,0
"03/07/08","00:09:14",198061.000,"cc",28321.338,6.00,6,0.100,128949.000,0.200,64912.000,0.300,3251.000,0.500,793.000,1.000,156.000,5.000,0
"03/07/08","00:09:20",297921.000,"cc",28312.041,6.00,6,0.100,252302.000,0.200,42470.000,0.300,2280.000,0.500,707.000,1.000,162.000,5.000,0
"03/07/08","00:09:26",300034.000,"cc",28301.576,6.00,6,0.100,238551.000,0.200,57786.000,0.300,2857.000,0.500,712.000,1.000,128.000,5.000,0
"03/07/08","00:09:32",346666.000,"cc",28360.254,6.00,6,0.100,302692.000,0.200,40768.000,0.300,2320.000,0.500,765.000,1.000,121.000,5.000,0
"03/07/08","00:09:38",332301.000,"cc",28291.074,6.00,6,0.100,291228.000,0.200,37965.000,0.300,2243.000,0.500,709.000,1.000,156.000,5.000,0
"03/07/08","00:09:44",222915.000,"cc",28348.955,6.00,6,0.100,198085.000,0.200,22521.000,0.300,1529.000,0.500,663.000,1.000,117.000,5.000,0
"03/07/08","00:09:50",177507.000,"cc",28314.945,6.00,6,0.100,158470.000,0.200,16894.000,0.300,1382.000,0.500,628.000,1.000,133.000,5.000,0
"03/07/08","00:09:56",149296.000,"cc",28251.615,6.00,6,0.100,133537.000,0.200,13805.000,0.300,1219.000,0.500,603.000,1.000,132.000,5.000,0
"03/07/08","00:10:02",153609.000,"cc",28341.074,6.00,6,0.100,137144.000,0.200,14358.000,0.300,1264.000,0.500,710.000,1.000,133.000,5.000,0
"03/07/08","00:10:08",149843.000,"cc",28357.305,6.00,6,0.100,134121.000,0.200,13857.000,0.300,1125.000,0.500,620.000,1.000,120.000,5.000,0
"03/07/08","00:10:14",181915.000,"cc",28347.162,6.00,6,0.100,162668.000,0.200,17215.000,0.300,1281.000,0.500,634.000,1.000,117.000,5.000,0
"03/07/08","00:10:20",130219.000,"cc",28282.607,6.00,6,0.100,116883.000,0.200,11619.000,0.300,1013.000,0.500,584.000,1.000,120.000,5.000,0
"03/07/08","00:10:26",162983.000,"cc",28271.363,6.00,6,0.100,145736.000,0.200,15399.000,0.300,1140.000,0.500,566.000,1.000,142.000,5.000,0
"03/07/08","00:10:32",155172.000,"cc",28272.137,6.00,6,0.100,138961.000,0.200,14405.000,0.300,1137.000,0.500,557.000,1.000,112.000,5.000,0
"03/07/08","00:10:38",201081.000,"cc",28278.662,6.00,6,0.100,179740.000,0.200,19308.000,0.300,1314.000,0.500,584.000,1.000,135.000,5.000,0
"03/07/08","00:10:44",170853.000,"cc",28403.066,6.00,6,0.100,153147.000,0.200,15811.000,0.300,1156.000,0.500,591.000,1.000,148.000,5.000,0
"03/07/08","00:10:50",228823.000,"cc",28321.357,6.00,6,0.100,203206.000,0.200,23405.000,0.300,1457.000,0.500,613.000,1.000,142.000,5.000,0
"03/07/08","00:10:56",293625.000,"cc",28311.277,6.00,6,0.100,259958.000,0.200,30973.000,0.300,1849.000,0.500,682.000,1.000,163.000,5.000,0
"03/07/08","00:11:02",164181.000,"cc",28303.184,6.00,6,0.100,147139.000,0.200,15198.000,0.300,1176.000,0.500,552.000,1.000,116.000,5.000,0
"03/07/08","00:11:08",151198.000,"cc",28318.695,6.00,6,0.100,135697.000,0.200,13790.000,0.300,1016.000,0.500,563.000,1.000,132.000,5.000,0
"03/07/08","00:11:14",139002.000,"cc",28347.330,6.00,6,0.100,124872.000,0.200,12363.000,0.300,1018.000,0.500,632.000,1.000,117.000,5.000,0
"03/07/08","00:11:20",155159.000,"cc",28279.199,6.00,6,0.100,138916.000,0.200,14279.000,0.300,1151.000,0.500,661.000,1.000,152.000,5.000,0
"03/07/08","00:11:26",168692.000,"cc",28331.313,6.00,6,0.100,151238.000,0.200,15458.000,0.300,1261.000,0.500,609.000,1.000,126.000,5.000,0
"03/07/08","00:11:32",93513.000,"cc",28333.705,6.00,6,0.100,84006.000,0.200,7926.000,0.300,862.000,0.500,608.000,1.000,111.000,5.000,0
"03/07/08","00:11:38",100078.000,"cc",28311.717,6.00,6,0.100,89810.000,0.200,8632.000,0.300,897.000,0.500,612.000,1.000,127.000,5.000,0
"03/07/08","00:11:44",80226.000,"cc",28273.793,6.00,6,0.100,71735.000,0.200,6920.000,0.300,865.000,0.500,579.000,1.000,127.000,5.000,0
"03/07/08","00:11:50",109238.000,"cc",28314.936,6.00,6,0.100,97955.000,0.200,9617.000,0.300,968.000,0.500,579.000,1.000,119.000,5.000,0
"03/07/08","00:11:56",141886.000,"cc",28323.609,6.00,6,0.100,127653.000,0.200,12432.000,0.300,1093.000,0.500,581.000,1.000,127.000,5.000,0
"03/07/08","00:12:02",96076.000,"cc",28326.688,6.00,6,0.100,86323.000,0.200,8151.000,0.300,856.000,0.500,613.000,1.000,133.000,5.000,0
"03/07/08","00:12:08",87826.000,"cc",28323.023,6.00,6,0.100,78653.000,0.200,7392.000,0.300,939.000,0.500,699.000,1.000,143.000,5.000,0
"03/07/08","00:12:14",120714.000,"cc",28299.139,6.00,6,0.100,108475.000,0.200,10525.000,0.300,989.000,0.500,590.000,1.000,135.000,5.000,0
"03/07/08","00:12:20",118683.000,"cc",28297.846,6.00,6,0.100,106630.000,0.200,10363.000,0.300,966.000,0.500,607.000,1.000,117.000,5.000,0
"03/07/08","00:12:26",140580.000,"cc",28372.930,6.00,6,0.100,126443.000,0.200,12189.000,0.300,1084.000,0.500,712.000,1.000,152.000,5.000,0
"03/07/08","00:12:32",117258.000,"cc",28273.643,6.00,6,0.100,104990.000,0.200,10360.000,0.300,1072.000,0.500,668.000,1.000,168.000,5.000,0
"03/07/08","00:12:38",124416.000,"cc",28246.932,6.00,6,0.100,111887.000,0.200,10615.000,0.300,1084.000,0.500,710.000,1.000,120.000,5.000,0
"03/07/08","00:12:44",173390.000,"cc",28313.764,6.00,6,0.100,155558.000,0.200,15703.000,0.300,1281.000,0.500,715.000,1.000,133.000,5.000,0
"03/07/08","00:12:50",132393.000,"cc",28339.756,6.00,6,0.100,118543.000,0.200,11540.000,0.300,1298.000,0.500,834.000,1.000,178.000,5.000,0
"03/07/08","00:12:56",187121.000,"cc",28371.451,6.00,6,0.100,167564.000,0.200,17462.000,0.300,1325.000,0.500,637.000,1.000,133.000,5.000,0
"03/07/08","00:13:02",122210.000,"cc",28307.313,6.00,6,0.100,109415.000,0.200,10827.000,0.300,1145.000,0.500,653.000,1.000,170.000,5.000,0
"03/07/08","00:13:08",94452.000,"cc",28333.951,6.00,6,0.100,84636.000,0.200,8164.000,0.300,896.000,0.500,620.000,1.000,136.000,5.000,0
"03/07/08","00:13:14",105712.000,"cc",28292.731,6.00,6,0.100,95077.000,0.200,9024.000,0.300,908.000,0.500,592.000,1.000,111.000,5.000,0
"03/07/08","00:13:20",128084.000,"cc",28365.078,6.00,6,0.100,114917.000,0.200,11360.000,0.300,1049.000,0.500,624.000,1.000,134.000,5.000,0
"03/07/08","00:13:26",172719.000,"cc",28420.488,6.00,6,0.100,154922.000,0.200,15927.000,0.300,1166.000,0.500,600.000,1.000,104.000,5.000,0
"03/07/08","00:13:32",266617.000,"cc",28231.635,6.00,6,0.100,235662.000,0.200,28444.000,0.300,1703.000,0.500,667.000,1.000,141.000,5.000,0
"03/07/08","00:13:38",269038.000,"cc",28325.758,6.00,6,0.100,238527.000,0.200,28106.000,0.300,1667.000,0.500,605.000,1.000,133.000,5.000,0
"03/07/08","00:13:44",218314.000,"cc",28314.801,6.00,6,0.100,195075.000,0.200,21262.000,0.300,1302.000,0.500,578.000,1.000,97.000,5.000,0
"03/07/08","00:13:50",136136.000,"cc",28274.625,6.00,6,0.100,122242.000,0.200,12174.000,0.300,1029.000,0.500,580.000,1.000,111.000,5.000,0
"03/07/08","00:13:56",150130.000,"cc",28296.059,6.00,6,0.100,134600.000,0.200,13727.000,0.300,1099.000,0.500,588.000,1.000,116.000,5.000,0
"03/07/08","00:14:02",119637.000,"cc",28288.184,6.00,6,0.100,107145.000,0.200,10736.000,0.300,1046.000,0.500,621.000,1.000,89.000,5.000,0
"03/07/08","00:14:08",78356.000,"cc",28312.117,6.00,6,0.100,69955.000,0.200,6760.000,0.300,923.000,0.500,624.000,1.000,94.000,5.000,0
"03/07/08","00:14:14",121051.000,"cc",28359.908,6.00,6,0.100,108399.000,0.200,10735.000,0.300,1072.000,0.500,693.000,1.000,152.000,5.000,0
"03/07/08","00:14:20",116334.000,"cc",28335.916,6.00,6,0.100,104387.000,0.200,10191.000,0.300,1037.000,0.500,616.000,1.000,103.000,5.000,0
"03/07/08","00:14:26",106328.000,"cc",28263.522,6.00,6,0.100,95267.000,0.200,9287.000,0.300,1031.000,0.500,625.000,1.000,118.000,5.000,0
"03/07/08","00:14:32",156929.000,"cc",28321.469,6.00,6,0.100,140642.000,0.200,14289.000,0.300,1266.000,0.500,612.000,1.000,120.000,5.000,0
"03/07/08","00:14:38",127645.000,"cc",28262.916,6.00,6,0.100,114712.000,0.200,11198.000,0.300,999.000,0.500,614.000,1.000,122.000,5.000,0
"03/07/08","00:14:44",124883.000,"cc",28301.709,6.00,6,0.100,112115.000,0.200,11116.000,0.300,1014.000,0.500,549.000,1.000,89.000,5.000,0
"03/07/08","00:14:50",141924.000,"cc",28370.678,6.00,6,0.100,127390.000,0.200,12703.000,0.300,1158.000,0.500,593.000,1.000,80.000,5.000,0
"03/07/08","00:14:56",158644.000,"cc",28339.570,6.00,6,0.100,142369.000,0.200,14323.000,0.300,1218.000,0.500,606.000,1.000,128.000,5.000,0
"03/07/08","00:15:02",152405.000,"cc",28389.340,6.00,6,0.100,137207.000,0.200,13462.000,0.300,1083.000,0.500,551.000,1.000,102.000,5.000,0
"03/07/08","00:15:08",92944.000,"cc",28292.441,6.00,6,0.100,83410.000,0.200,7865.000,0.300,1009.000,0.500,562.000,1.000,98.000,5.000,0
"03/07/08","00:15:14",156444.000,"cc",28315.926,6.00,6,0.100,140271.000,0.200,14253.000,0.300,1157.000,0.500,641.000,1.000,122.000,5.000,0
"03/07/08","00:15:20",148087.000,"cc",28349.398,6.00,6,0.100,132956.000,0.200,13424.000,0.300,1063.000,0.500,527.000,1.000,117.000,5.000,0
"03/07/08","00:15:26",128408.000,"cc",28306.244,6.00,6,0.100,115478.000,0.200,11201.000,0.300,1074.000,0.500,558.000,1.000,97.000,5.000,0
"03/07/08","00:15:32",148957.000,"cc",28256.900,6.00,6,0.100,134339.000,0.200,12980.000,0.300,1001.000,0.500,556.000,1.000,81.000,5.000,0
"03/07/08","00:15:38",120261.000,"cc",28320.918,6.00,6,0.100,108527.000,0.200,10163.000,0.300,920.000,0.500,545.000,1.000,106.000,5.000,0
"03/07/08","00:15:44",78020.000,"cc",28298.873,6.00,6,0.100,69983.000,0.200,6606.000,0.300,811.000,0.500,529.000,1.000,91.000,5.000,0
"03/07/08","00:15:50",116278.000,"cc",28272.313,6.00,6,0.100,104799.000,0.200,9883.000,0.300,941.000,0.500,553.000,1.000,102.000,5.000,0
"03/07/08","00:15:56",77612.000,"cc",28348.443,6.00,6,0.100,69604.000,0.200,6517.000,0.300,814.000,0.500,583.000,1.000,94.000,5.000,0
"03/07/08","00:16:02",88926.000,"cc",28359.066,6.00,6,0.100,80037.000,0.200,7378.000,0.300,859.000,0.500,553.000,1.000,99.000,5.000,0
"03/07/08","00:16:08",69511.000,"cc",28304.461,6.00,6,0.100,62122.000,0.200,5864.000,0.300,830.000,0.500,599.000,1.000,96.000,5.000,0